Time,TemperatureF,DewpointF,PressureIn,WindDirection,WindDirectionDegrees,WindSpeedMPH,WindSpeedGustMPH,Humidity,HourlyPrecipIn,Conditions,Clouds,dailyrainin,SolarRadiationWatts/m^2,SoftwareType,DateUTC
2013-01-04 00:00:00,32.8,21.6,30.06,WSW,250,6.0,12.0,63,0.00,,OVC070,0.00,0.00,VWS V14.01,2013-01-04 05:00:00,
2013-01-04 00:01:00,32.8,21.6,30.06,WSW,244,4.0,6.0,63,0.00,,OVC070,0.00,0.00,VWS V14.01,2013-01-04 05:01:00,
2013-01-04 00:02:00,32.8,21.6,30.06,NW,319,4.0,6.0,63,0.00,,OVC070,0.00,0.00,VWS V14.01,2013-01-04 05:02:00,
2013-01-04 00:07:00,32.7,21.5,30.05,SW,229,1.0,7.0,63,0.00,,OVC070,0.00,0.00,VWS V14.01,2013-01-04 05:07:00,
2013-01-04 00:12:00,32.7,21.5,30.05,West,259,4.0,8.0,63,0.00,,OVC070,0.00,0.00,VWS V14.01,2013-01-04 05:12:00,
2013-01-04 00:17:00,32.6,21.4,30.05,SW,234,2.0,8.0,63,0.00,,OVC070,0.00,0.00,VWS V14.01,2013-01-04 05:17:00,
2013-01-04 00:22:00,32.5,21.7,30.05,WSW,237,2.0,9.0,64,0.00,,OVC070,0.00,0.00,VWS V14.01,2013-01-04 05:22:00,
2013-01-04 00:27:00,32.5,21.7,30.05,WNW,300,5.0,9.0,64,0.00,,OVC070,0.00,0.00,VWS V14.01,2013-01-04 05:27:00,
2013-01-04 00:30:00,32.2,22.1,30.05,WSW,253,6.0,7.0,66,0.00,,,0.00,0.00,VWS V14.01,2013-01-04 05:30:00,
2013-01-04 00:32:00,32.4,21.6,30.05,WSW,242,3.0,4.0,64,0.00,,OVC070,0.00,0.00,VWS V14.01,2013-01-04 05:32:00,
2013-01-04 00:37:00,32.4,21.6,30.05,SW,222,3.0,8.0,64,0.00,,OVC070,0.00,0.00,VWS V14.01,2013-01-04 05:37:00,
2013-01-04 00:42:00,32.4,21.6,30.04,WSW,257,1.0,8.0,64,0.00,,OVC070,0.00,0.00,VWS V14.01,2013-01-04 05:42:00,
2013-01-04 00:47:00,32.4,21.6,30.05,WSW,242,6.0,8.0,64,0.00,,OVC070,0.00,0.00,VWS V14.01,2013-01-04 05:47:00,
2013-01-04 00:52:00,32.4,21.6,30.05,WSW,249,4.0,8.0,64,0.00,,OVC070,0.00,0.00,VWS V14.01,2013-01-04 05:52:00,
2013-01-04 00:57:00,32.3,21.5,30.05,SW,224,4.0,8.0,64,0.00,,OVC070,0.00,0.00,VWS V14.01,2013-01-04 05:57:00,
2013-01-04 01:00:00,32.1,22.0,30.05,West,261,4.0,10.0,66,0.00,,,0.00,0.00,VWS V14.01,2013-01-04 06:00:00,
2013-01-04 01:02:00,32.3,21.9,30.05,WSW,244,4.0,7.0,65,0.00,,OVC250,0.00,0.00,VWS V14.01,2013-01-04 06:02:00,
2013-01-04 01:07:00,32.2,21.8,30.05,SSE,158,1.0,7.0,65,0.00,,OVC250,0.00,0.00,VWS V14.01,2013-01-04 06:07:00,
2013-01-04 01:12:00,32.2,21.8,30.05,SW,236,3.0,7.0,65,0.00,,OVC250,0.00,0.00,VWS V14.01,2013-01-04 06:12:00,
2013-01-04 01:17:00,32.1,21.7,30.05,WSW,240,3.0,7.0,65,0.00,,OVC250,0.00,0.00,VWS V14.01,2013-01-04 06:17:00,
2013-01-04 01:22:00,32.1,22.0,30.05,SW,214,1.0,7.0,66,0.00,,OVC250,0.00,0.00,VWS V14.01,2013-01-04 06:22:00,
2013-01-04 01:27:00,32.2,22.1,30.05,WSW,248,4.0,7.0,66,0.00,,OVC250,0.00,0.00,VWS V14.01,2013-01-04 06:27:00,
2013-01-04 01:30:00,32.2,22.5,30.05,WSW,251,7.0,9.0,67,0.00,,,0.00,0.00,VWS V14.01,2013-01-04 06:30:00,
2013-01-04 01:32:00,32.2,22.1,30.05,WSW,250,3.0,6.0,66,0.00,,SCT250,0.00,0.00,VWS V14.01,2013-01-04 06:32:00,
2013-01-04 01:37:00,32.2,22.1,30.05,SW,230,5.0,9.0,66,0.00,,SCT250,0.00,0.00,VWS V14.01,2013-01-04 06:37:00,
2013-01-04 01:42:00,32.2,22.1,30.05,WSW,240,5.0,9.0,66,0.00,,SCT250,0.00,0.00,VWS V14.01,2013-01-04 06:42:00,
2013-01-04 01:47:00,32.1,22.0,30.05,SW,226,5.0,9.0,66,0.00,,SCT250,0.00,0.00,VWS V14.01,2013-01-04 06:47:00,
2013-01-04 01:52:00,32.1,22.0,30.05,West,267,5.0,9.0,66,0.00,,SCT250,0.00,0.00,VWS V14.01,2013-01-04 06:52:00,
2013-01-04 01:57:00,32.2,22.1,30.05,WSW,241,6.0,9.0,66,0.00,,SCT250,0.00,0.00,VWS V14.01,2013-01-04 06:57:00,
2013-01-04 02:00:00,32.5,22.8,30.06,WSW,238,6.0,10.0,67,0.00,,,0.00,0.00,VWS V14.01,2013-01-04 07:00:00,
2013-01-04 02:02:00,32.1,22.0,30.05,WSW,257,6.0,7.0,66,0.00,,SCT250,0.00,0.00,VWS V14.01,2013-01-04 07:02:00,
2013-01-04 02:07:00,32.2,22.1,30.05,WSW,254,6.0,9.0,66,0.00,,SCT250,0.00,0.00,VWS V14.01,2013-01-04 07:07:00,
2013-01-04 02:12:00,32.3,22.6,30.05,SW,236,5.0,9.0,67,0.00,,SCT250,0.00,0.00,VWS V14.01,2013-01-04 07:12:00,
2013-01-04 02:17:00,32.2,22.5,30.05,SSW,213,6.0,9.0,67,0.00,,SCT250,0.00,0.00,VWS V14.01,2013-01-04 07:17:00,
2013-01-04 02:22:00,32.2,22.5,30.05,West,269,4.0,9.0,67,0.00,,SCT250,0.00,0.00,VWS V14.01,2013-01-04 07:22:00,
2013-01-04 02:27:00,32.2,22.5,30.05,West,262,5.0,9.0,67,0.00,,SCT250,0.00,0.00,VWS V14.01,2013-01-04 07:27:00,
2013-01-04 02:30:00,32.6,22.9,30.05,West,268,3.0,10.0,67,0.00,,,0.00,0.00,VWS V14.01,2013-01-04 07:30:00,
2013-01-04 02:32:00,32.2,22.5,30.05,SW,214,3.0,8.0,67,0.00,,SCT250,0.00,0.00,VWS V14.01,2013-01-04 07:32:00,
2013-01-04 02:37:00,32.2,22.5,30.05,WSW,255,3.0,8.0,67,0.00,,SCT250,0.00,0.00,VWS V14.01,2013-01-04 07:37:00,
2013-01-04 02:42:00,32.2,22.8,30.05,West,260,2.0,8.0,68,0.00,,SCT250,0.00,0.00,VWS V14.01,2013-01-04 07:42:00,
2013-01-04 02:47:00,32.3,22.9,30.05,SSW,195,5.0,10.0,68,0.00,,SCT250,0.00,0.00,VWS V14.01,2013-01-04 07:47:00,
2013-01-04 02:52:00,32.5,22.8,30.05,SW,228,4.0,10.0,67,0.00,,SCT250,0.00,0.00,VWS V14.01,2013-01-04 07:52:00,
2013-01-04 02:57:00,32.5,22.8,30.06,WSW,246,5.0,10.0,67,0.00,,SCT250,0.00,0.00,VWS V14.01,2013-01-04 07:57:00,
2013-01-04 03:00:00,32.7,23.3,30.05,SW,234,0.0,10.0,68,0.00,,,0.00,0.00,VWS V14.01,2013-01-04 08:00:00,
2013-01-04 03:02:00,32.5,22.8,30.06,WSW,239,4.0,6.0,67,0.00,,CLR,0.00,0.00,VWS V14.01,2013-01-04 08:02:00,
2013-01-04 03:07:00,32.5,22.8,30.05,WSW,248,4.0,7.0,67,0.00,,CLR,0.00,0.00,VWS V14.01,2013-01-04 08:07:00,
2013-01-04 03:12:00,32.5,22.8,30.05,WSW,246,4.0,9.0,67,0.00,,CLR,0.00,0.00,VWS V14.01,2013-01-04 08:12:00,
2013-01-04 03:17:00,32.5,22.8,30.05,WSW,246,3.0,9.0,67,0.00,,CLR,0.00,0.00,VWS V14.01,2013-01-04 08:17:00,
2013-01-04 03:22:00,32.5,22.8,30.05,West,271,2.0,9.0,67,0.00,,CLR,0.00,0.00,VWS V14.01,2013-01-04 08:22:00,
2013-01-04 03:27:00,32.5,22.8,30.05,WSW,252,6.0,9.0,67,0.00,,CLR,0.00,0.00,VWS V14.01,2013-01-04 08:27:00,
2013-01-04 03:30:00,32.5,23.1,30.05,WNW,294,10.0,11.0,68,0.00,,,0.00,0.00,VWS V14.01,2013-01-04 08:30:00,
2013-01-04 03:32:00,32.6,22.9,30.05,WNW,295,3.0,3.0,67,0.00,,CLR,0.00,0.00,VWS V14.01,2013-01-04 08:32:00,
2013-01-04 03:37:00,32.6,22.9,30.05,WNW,301,4.0,7.0,67,0.00,,CLR,0.00,0.00,VWS V14.01,2013-01-04 08:37:00,
2013-01-04 03:42:00,32.7,23.0,30.05,SW,234,5.0,10.0,67,0.00,,CLR,0.00,0.00,VWS V14.01,2013-01-04 08:42:00,
2013-01-04 03:47:00,32.7,23.3,30.05,WSW,254,4.0,10.0,68,0.00,,CLR,0.00,0.00,VWS V14.01,2013-01-04 08:47:00,
2013-01-04 03:52:00,32.7,23.3,30.05,WSW,257,4.0,10.0,68,0.00,,CLR,0.00,0.00,VWS V14.01,2013-01-04 08:52:00,
2013-01-04 03:57:00,32.7,23.3,30.05,NW,313,1.0,10.0,68,0.00,,CLR,0.00,0.00,VWS V14.01,2013-01-04 08:57:00,
2013-01-04 04:00:00,32.7,23.7,30.05,WSW,254,4.0,12.0,69,0.00,,,0.00,0.00,VWS V14.01,2013-01-04 09:00:00,
2013-01-04 04:02:00,32.7,23.3,30.05,WSW,250,2.0,2.0,68,0.00,,CLR,0.00,0.00,VWS V14.01,2013-01-04 09:02:00,
2013-01-04 04:07:00,32.6,23.6,30.05,WSW,246,4.0,8.0,69,0.00,,CLR,0.00,0.00,VWS V14.01,2013-01-04 09:07:00,
2013-01-04 04:12:00,32.6,23.6,30.05,SW,233,2.0,8.0,69,0.00,,CLR,0.00,0.00,VWS V14.01,2013-01-04 09:12:00,
2013-01-04 04:17:00,32.5,23.1,30.05,SW,218,2.0,8.0,68,0.00,,CLR,0.00,0.00,VWS V14.01,2013-01-04 09:17:00,
2013-01-04 04:22:00,32.5,23.1,30.05,WSW,242,4.0,11.0,68,0.00,,CLR,0.00,0.00,VWS V14.01,2013-01-04 09:22:00,
2013-01-04 04:27:00,32.5,23.5,30.05,WNW,293,1.0,11.0,69,0.00,,CLR,0.00,0.00,VWS V14.01,2013-01-04 09:27:00,
2013-01-04 04:30:00,32.7,24.0,30.06,WSW,244,3.0,10.0,70,0.00,,,0.00,0.00,VWS V14.01,2013-01-04 09:30:00,
2013-01-04 04:32:00,32.5,23.1,30.05,WNW,300,3.0,10.0,68,0.00,,CLR,0.00,0.00,VWS V14.01,2013-01-04 09:32:00,
2013-01-04 04:37:00,32.6,23.2,30.05,NW,321,5.0,11.0,68,0.00,,CLR,0.00,0.00,VWS V14.01,2013-01-04 09:37:00,
2013-01-04 04:42:00,32.6,23.6,30.05,NW,316,4.0,11.0,69,0.00,,CLR,0.00,0.00,VWS V14.01,2013-01-04 09:42:00,
2013-01-04 04:47:00,32.6,23.6,30.05,WSW,257,5.0,11.0,69,0.00,,CLR,0.00,0.00,VWS V14.01,2013-01-04 09:47:00,
2013-01-04 04:52:00,32.7,23.7,30.05,WSW,258,2.0,11.0,69,0.00,,CLR,0.00,0.00,VWS V14.01,2013-01-04 09:52:00,
2013-01-04 04:57:00,32.7,23.7,30.05,West,265,5.0,12.0,69,0.00,,CLR,0.00,0.00,VWS V14.01,2013-01-04 09:57:00,
2013-01-04 05:00:00,32.9,24.2,30.06,West,261,6.0,10.0,70,0.00,,,0.00,0.00,VWS V14.01,2013-01-04 10:00:00,
2013-01-04 05:02:00,32.7,23.7,30.05,WSW,251,2.0,5.0,69,0.00,,CLR,0.00,0.00,VWS V14.01,2013-01-04 10:02:00,
2013-01-04 05:07:00,32.7,23.7,30.05,WSW,253,1.0,8.0,69,0.00,,CLR,0.00,0.00,VWS V14.01,2013-01-04 10:07:00,
2013-01-04 05:12:00,32.6,23.6,30.05,WSW,247,4.0,9.0,69,0.00,,CLR,0.00,0.00,VWS V14.01,2013-01-04 10:12:00,
2013-01-04 05:17:00,32.6,23.9,30.06,WNW,292,5.0,9.0,70,0.00,,CLR,0.00,0.00,VWS V14.01,2013-01-04 10:17:00,
2013-01-04 05:22:00,32.6,23.9,30.06,WNW,282,6.0,9.0,70,0.00,,CLR,0.00,0.00,VWS V14.01,2013-01-04 10:22:00,
2013-01-04 05:27:00,32.6,23.9,30.06,WSW,257,3.0,10.0,70,0.00,,CLR,0.00,0.00,VWS V14.01,2013-01-04 10:27:00,
2013-01-04 05:30:00,33.6,24.5,30.06,WSW,251,4.0,11.0,69,0.00,,,0.00,0.00,VWS V14.01,2013-01-04 10:30:00,
2013-01-04 05:32:00,32.6,23.9,30.06,WSW,246,4.0,5.0,70,0.00,,SCT060,0.00,0.00,VWS V14.01,2013-01-04 10:32:00,
2013-01-04 05:37:00,32.7,24.0,30.06,SW,227,6.0,8.0,70,0.00,,SCT060,0.00,0.00,VWS V14.01,2013-01-04 10:37:00,
2013-01-04 05:42:00,32.8,24.5,30.06,West,271,5.0,10.0,71,0.00,,SCT060,0.00,0.00,VWS V14.01,2013-01-04 10:42:00,
2013-01-04 05:47:00,32.9,24.2,30.06,SW,236,1.0,10.0,70,0.00,,SCT060,0.00,0.00,VWS V14.01,2013-01-04 10:47:00,
2013-01-04 05:52:00,32.8,24.5,30.06,WSW,251,4.0,10.0,71,0.00,,SCT060,0.00,0.00,VWS V14.01,2013-01-04 10:52:00,
2013-01-04 05:57:00,32.9,24.2,30.06,West,261,3.0,10.0,70,0.00,,SCT060,0.00,0.00,VWS V14.01,2013-01-04 10:57:00,
2013-01-04 06:00:00,34.2,24.4,30.06,West,271,7.0,12.0,67,0.00,,,0.00,0.00,VWS V14.01,2013-01-04 11:00:00,
2013-01-04 06:02:00,32.9,24.2,30.06,WSW,240,7.0,11.0,70,0.00,,SCT060,0.00,0.00,VWS V14.01,2013-01-04 11:02:00,
2013-01-04 06:07:00,33.0,24.3,30.06,WSW,251,0.0,11.0,70,0.00,,SCT060,0.00,0.00,VWS V14.01,2013-01-04 11:07:00,
2013-01-04 06:12:00,33.0,24.3,30.06,West,273,3.0,11.0,70,0.00,,SCT060,0.00,0.00,VWS V14.01,2013-01-04 11:12:00,
2013-01-04 06:17:00,33.2,24.5,30.06,WNW,294,6.0,11.0,70,0.00,,SCT060,0.00,0.00,VWS V14.01,2013-01-04 11:17:00,
2013-01-04 06:22:00,33.3,24.2,30.06,WSW,252,7.0,11.0,69,0.00,,SCT060,0.00,0.00,VWS V14.01,2013-01-04 11:22:00,
2013-01-04 06:27:00,33.5,24.4,30.06,WNW,288,5.0,11.0,69,0.00,,SCT060,0.00,0.00,VWS V14.01,2013-01-04 11:27:00,
2013-01-04 06:30:00,34.3,24.5,30.06,WSW,240,13.0,13.0,67,0.00,,,0.00,0.00,VWS V14.01,2013-01-04 11:30:00,
2013-01-04 06:32:00,33.6,24.5,30.06,WNW,288,5.0,8.0,69,0.00,,OVC050,0.00,0.00,VWS V14.01,2013-01-04 11:32:00,
2013-01-04 06:37:00,33.8,24.7,30.06,WSW,245,6.0,10.0,69,0.00,,OVC050,0.00,0.00,VWS V14.01,2013-01-04 11:37:00,
2013-01-04 06:42:00,33.9,24.5,30.06,WSW,244,9.0,11.0,68,0.00,,OVC050,0.00,0.00,VWS V14.01,2013-01-04 11:42:00,
2013-01-04 06:47:00,33.9,24.5,30.06,West,271,4.0,11.0,68,0.00,,OVC050,0.00,0.00,VWS V14.01,2013-01-04 11:47:00,
2013-01-04 06:52:00,34.0,24.6,30.06,WNW,303,4.0,11.0,68,0.00,,OVC050,0.00,0.00,VWS V14.01,2013-01-04 11:52:00,
2013-01-04 06:57:00,34.1,24.7,30.06,WSW,242,4.0,11.0,68,0.00,,OVC050,0.00,0.00,VWS V14.01,2013-01-04 11:57:00,
2013-01-04 07:00:00,34.6,24.4,30.06,West,261,6.0,13.0,66,0.00,,,0.00,16.00,VWS V14.01,2013-01-04 12:00:00,
2013-01-04 07:02:00,34.2,24.4,30.06,WNW,294,3.0,7.0,67,0.00,,OVC050,0.00,0.00,VWS V14.01,2013-01-04 12:02:00,
2013-01-04 07:07:00,34.2,24.4,30.06,WSW,238,4.0,11.0,67,0.00,,OVC050,0.00,0.00,VWS V14.01,2013-01-04 12:07:00,
2013-01-04 07:12:00,34.3,24.5,30.06,West,264,5.0,13.0,67,0.00,,OVC050,0.00,0.00,VWS V14.01,2013-01-04 12:12:00,
2013-01-04 07:17:00,34.3,24.5,30.06,West,279,7.0,13.0,67,0.00,,OVC050,0.00,0.00,VWS V14.01,2013-01-04 12:17:00,
2013-01-04 07:22:00,34.3,24.5,30.07,SW,234,7.0,13.0,67,0.00,,OVC050,0.00,0.00,VWS V14.01,2013-01-04 12:22:00,
2013-01-04 07:27:00,34.3,24.5,30.06,SW,223,7.0,13.0,67,0.00,,OVC050,0.00,0.00,VWS V14.01,2013-01-04 12:27:00,
2013-01-04 07:30:00,35.0,24.8,30.07,West,277,3.0,14.0,66,0.00,,,0.00,30.00,VWS V14.01,2013-01-04 12:30:00,
2013-01-04 07:32:00,34.4,24.6,30.06,SSW,206,7.0,13.0,67,0.00,,OVC050,0.00,0.00,VWS V14.01,2013-01-04 12:32:00,
2013-01-04 07:37:00,34.4,24.6,30.07,WSW,238,5.0,13.0,67,0.00,,OVC050,0.00,0.00,VWS V14.01,2013-01-04 12:37:00,
2013-01-04 07:42:00,34.4,24.6,30.06,WSW,241,9.0,13.0,67,0.00,,OVC050,0.00,5.00,VWS V14.01,2013-01-04 12:42:00,
2013-01-04 07:47:00,34.4,24.6,30.06,South,190,3.0,13.0,67,0.00,,OVC050,0.00,7.00,VWS V14.01,2013-01-04 12:47:00,
2013-01-04 07:52:00,34.5,24.7,30.07,WSW,248,5.0,13.0,67,0.00,,OVC050,0.00,11.00,VWS V14.01,2013-01-04 12:52:00,
2013-01-04 07:57:00,34.6,24.8,30.06,WSW,240,7.0,13.0,67,0.00,,OVC050,0.00,12.00,VWS V14.01,2013-01-04 12:57:00,
2013-01-04 08:00:00,35.2,24.6,30.07,West,264,4.0,15.0,65,0.00,,,0.00,44.00,VWS V14.01,2013-01-04 13:00:00,
2013-01-04 08:02:00,34.6,24.4,30.06,WSW,241,2.0,6.0,66,0.00,,OVC050,0.00,18.00,VWS V14.01,2013-01-04 13:02:00,
2013-01-04 08:07:00,34.7,24.5,30.07,West,271,4.0,11.0,66,0.00,,OVC050,0.00,19.00,VWS V14.01,2013-01-04 13:07:00,
2013-01-04 08:12:00,34.8,24.6,30.07,West,278,2.0,13.0,66,0.00,,OVC050,0.00,23.00,VWS V14.01,2013-01-04 13:12:00,
2013-01-04 08:17:00,34.9,24.7,30.07,SW,233,6.0,13.0,66,0.00,,OVC050,0.00,23.00,VWS V14.01,2013-01-04 13:17:00,
2013-01-04 08:22:00,34.9,24.7,30.07,SW,228,5.0,13.0,66,0.00,,OVC050,0.00,28.00,VWS V14.01,2013-01-04 13:22:00,
2013-01-04 08:27:00,35.0,24.8,30.07,WSW,252,4.0,13.0,66,0.00,,OVC050,0.00,30.00,VWS V14.01,2013-01-04 13:27:00,
2013-01-04 08:30:00,35.1,24.9,30.08,West,278,8.0,17.0,66,0.00,,,0.00,58.00,VWS V14.01,2013-01-04 13:30:00,
2013-01-04 08:32:00,35.0,24.8,30.07,WSW,240,3.0,6.0,66,0.00,,OVC048,0.00,32.00,VWS V14.01,2013-01-04 13:32:00,
2013-01-04 08:37:00,35.1,24.5,30.07,WSW,254,10.0,15.0,65,0.00,,OVC048,0.00,33.00,VWS V14.01,2013-01-04 13:37:00,
2013-01-04 08:42:00,35.1,24.5,30.07,West,262,5.0,15.0,65,0.00,,OVC048,0.00,39.00,VWS V14.01,2013-01-04 13:42:00,
2013-01-04 08:47:00,35.1,24.5,30.07,West,266,3.0,15.0,65,0.00,,OVC048,0.00,39.00,VWS V14.01,2013-01-04 13:47:00,
2013-01-04 08:52:00,35.1,24.5,30.07,West,264,12.0,15.0,65,0.00,,OVC048,0.00,42.00,VWS V14.01,2013-01-04 13:52:00,
2013-01-04 08:57:00,35.1,24.5,30.08,WSW,242,6.0,15.0,65,0.00,,OVC048,0.00,44.00,VWS V14.01,2013-01-04 13:57:00,
2013-01-04 09:00:00,35.1,25.3,30.08,WSW,256,8.0,13.0,67,0.00,,,0.00,97.00,VWS V14.01,2013-01-04 14:00:00,
2013-01-04 09:02:00,35.2,24.6,30.07,SW,233,3.0,7.0,65,0.00,,OVC048,0.00,46.00,VWS V14.01,2013-01-04 14:02:00,
2013-01-04 09:07:00,35.2,25.0,30.07,SW,220,4.0,14.0,66,0.00,,OVC048,0.00,42.00,VWS V14.01,2013-01-04 14:07:00,
2013-01-04 09:12:00,35.2,24.6,30.07,West,260,8.0,16.0,65,0.00,,OVC048,0.00,49.00,VWS V14.01,2013-01-04 14:12:00,
2013-01-04 09:17:00,35.2,24.6,30.07,WSW,243,3.0,16.0,65,0.00,,OVC048,0.00,53.00,VWS V14.01,2013-01-04 14:17:00,
2013-01-04 09:22:00,35.2,24.6,30.08,WSW,256,8.0,16.0,65,0.00,,OVC048,0.00,53.00,VWS V14.01,2013-01-04 14:22:00,
2013-01-04 09:27:00,35.1,24.5,30.08,WNW,286,7.0,16.0,65,0.00,,OVC048,0.00,56.00,VWS V14.01,2013-01-04 14:27:00,
2013-01-04 09:30:00,35.5,25.6,30.06,West,265,9.0,14.0,67,0.00,,,0.00,202.00,VWS V14.01,2013-01-04 14:30:00,
2013-01-04 09:32:00,35.1,24.9,30.08,WSW,253,7.0,9.0,66,0.00,,OVC042,0.00,58.00,VWS V14.01,2013-01-04 14:32:00,
2013-01-04 09:37:00,35.1,24.9,30.08,WSW,247,7.0,11.0,66,0.00,,OVC042,0.00,70.00,VWS V14.01,2013-01-04 14:37:00,
2013-01-04 09:42:00,35.1,25.3,30.08,WSW,257,6.0,11.0,67,0.00,,OVC042,0.00,83.00,VWS V14.01,2013-01-04 14:42:00,
2013-01-04 09:47:00,35.1,25.3,30.08,West,261,8.0,13.0,67,0.00,,OVC042,0.00,79.00,VWS V14.01,2013-01-04 14:47:00,
2013-01-04 09:52:00,35.1,25.3,30.08,WSW,241,5.0,13.0,67,0.00,,OVC042,0.00,84.00,VWS V14.01,2013-01-04 14:52:00,
2013-01-04 09:57:00,35.1,25.3,30.08,WSW,240,6.0,13.0,67,0.00,,OVC042,0.00,83.00,VWS V14.01,2013-01-04 14:57:00,
2013-01-04 10:00:00,36.6,26.0,30.04,West,261,8.0,16.0,65,0.00,,,0.00,443.00,VWS V14.01,2013-01-04 15:00:00,
2013-01-04 10:02:00,35.1,25.3,30.08,WSW,250,4.0,8.0,67,0.00,,OVC042,0.00,102.00,VWS V14.01,2013-01-04 15:02:00,
2013-01-04 10:07:00,35.1,25.3,30.07,West,267,5.0,10.0,67,0.00,,OVC042,0.00,130.00,VWS V14.01,2013-01-04 15:07:00,
2013-01-04 10:12:00,35.2,25.7,30.07,West,266,4.0,10.0,68,0.00,,OVC042,0.00,149.00,VWS V14.01,2013-01-04 15:12:00,
2013-01-04 10:17:00,35.4,25.5,30.07,West,260,14.0,14.0,67,0.00,,OVC042,0.00,193.00,VWS V14.01,2013-01-04 15:17:00,
2013-01-04 10:22:00,35.3,25.5,30.07,WNW,291,6.0,14.0,67,0.00,,OVC042,0.00,200.00,VWS V14.01,2013-01-04 15:22:00,
2013-01-04 10:27:00,35.5,25.6,30.07,West,273,9.0,14.0,67,0.00,,OVC042,0.00,211.00,VWS V14.01,2013-01-04 15:27:00,
2013-01-04 10:30:00,36.9,25.1,30.02,WSW,247,5.0,20.0,62,0.00,,,0.00,174.00,VWS V14.01,2013-01-04 15:30:00,
2013-01-04 10:32:00,35.5,25.6,30.06,NNW,336,5.0,15.0,67,0.00,,OVC046,0.00,209.00,VWS V14.01,2013-01-04 15:32:00,
2013-01-04 10:37:00,35.5,25.6,30.06,WSW,254,9.0,15.0,67,0.00,,OVC046,0.00,202.00,VWS V14.01,2013-01-04 15:37:00,
2013-01-04 10:42:00,35.6,25.7,30.06,West,261,6.0,15.0,67,0.00,,OVC046,0.00,204.00,VWS V14.01,2013-01-04 15:42:00,
2013-01-04 10:47:00,35.7,25.8,30.06,WSW,237,6.0,15.0,67,0.00,,OVC046,0.00,220.00,VWS V14.01,2013-01-04 15:47:00,
2013-01-04 10:52:00,35.9,26.0,30.05,WNW,287,1.0,15.0,67,0.00,,OVC046,0.00,236.00,VWS V14.01,2013-01-04 15:52:00,
2013-01-04 10:57:00,36.3,25.7,30.05,SW,226,5.0,16.0,65,0.00,,OVC046,0.00,478.00,VWS V14.01,2013-01-04 15:57:00,
2013-01-04 11:00:00,37.8,24.4,30.00,WNW,299,4.0,15.0,58,0.00,,,0.00,599.00,VWS V14.01,2013-01-04 16:00:00,
2013-01-04 11:02:00,36.7,25.7,30.04,WSW,251,5.0,8.0,64,0.00,,OVC046,0.00,418.00,VWS V14.01,2013-01-04 16:02:00,
2013-01-04 11:07:00,37.0,25.6,30.04,WSW,258,11.0,14.0,63,0.00,,OVC046,0.00,418.00,VWS V14.01,2013-01-04 16:07:00,
2013-01-04 11:12:00,36.9,25.5,30.03,NW,309,10.0,20.0,63,0.00,,OVC046,0.00,418.00,VWS V14.01,2013-01-04 16:12:00,
2013-01-04 11:17:00,37.2,25.4,30.03,West,269,8.0,20.0,62,0.00,,OVC046,0.00,396.00,VWS V14.01,2013-01-04 16:17:00,
2013-01-04 11:22:00,37.3,25.5,30.02,WSW,248,7.0,20.0,62,0.00,,OVC046,0.00,149.00,VWS V14.01,2013-01-04 16:22:00,
2013-01-04 11:27:00,37.1,24.9,30.02,WNW,284,6.0,20.0,61,0.00,,OVC046,0.00,160.00,VWS V14.01,2013-01-04 16:27:00,
2013-01-04 11:30:00,37.7,23.9,29.99,WNW,285,5.0,19.0,57,0.00,,,0.00,132.00,VWS V14.01,2013-01-04 16:30:00,
2013-01-04 11:32:00,36.9,25.1,30.02,WNW,299,2.0,7.0,62,0.00,,BKN048,0.00,197.00,VWS V14.01,2013-01-04 16:32:00,
2013-01-04 11:37:00,37.0,25.2,30.02,NW,310,9.0,14.0,62,0.00,,BKN048,0.00,239.00,VWS V14.01,2013-01-04 16:37:00,
2013-01-04 11:42:00,37.4,25.2,30.01,NW,319,2.0,15.0,61,0.00,,BKN048,0.00,540.00,VWS V14.01,2013-01-04 16:42:00,
2013-01-04 11:47:00,38.1,25.5,30.01,NNE,29,4.0,15.0,60,0.00,,BKN048,0.00,497.00,VWS V14.01,2013-01-04 16:47:00,
2013-01-04 11:52:00,38.1,24.6,30.01,NNW,337,4.0,15.0,58,0.00,,BKN048,0.00,144.00,VWS V14.01,2013-01-04 16:52:00,
2013-01-04 11:57:00,37.7,24.7,30.00,West,267,12.0,15.0,59,0.00,,BKN048,0.00,292.00,VWS V14.01,2013-01-04 16:57:00,
2013-01-04 12:00:00,38.3,24.0,29.97,West,272,8.0,15.0,56,0.00,,,0.00,118.00,VWS V14.01,2013-01-04 17:00:00,
2013-01-04 12:02:00,37.8,24.4,30.00,NW,307,4.0,7.0,58,0.00,,BKN048,0.00,599.00,VWS V14.01,2013-01-04 17:02:00,
2013-01-04 12:07:00,38.1,24.6,30.00,NNW,335,7.0,13.0,58,0.00,,BKN048,0.00,492.00,VWS V14.01,2013-01-04 17:07:00,
2013-01-04 12:12:00,38.0,24.1,30.00,NW,316,4.0,15.0,57,0.00,,BKN048,0.00,554.00,VWS V14.01,2013-01-04 17:12:00,
2013-01-04 12:17:00,38.7,24.8,29.99,WNW,297,7.0,15.0,57,0.00,,BKN048,0.00,483.00,VWS V14.01,2013-01-04 17:17:00,
2013-01-04 12:22:00,38.5,24.2,29.99,WSW,246,6.0,15.0,56,0.00,,BKN048,0.00,225.00,VWS V14.01,2013-01-04 17:22:00,
2013-01-04 12:27:00,37.9,23.6,29.99,WSW,252,7.0,19.0,56,0.00,,BKN048,0.00,413.00,VWS V14.01,2013-01-04 17:27:00,
2013-01-04 12:30:00,38.0,23.7,29.96,WSW,252,12.0,17.0,56,0.00,,,0.00,374.00,VWS V14.01,2013-01-04 17:30:00,
2013-01-04 12:32:00,37.6,23.8,29.99,NNW,332,2.0,6.0,57,0.00,,BKN041,0.00,139.00,VWS V14.01,2013-01-04 17:32:00,
2013-01-04 12:37:00,37.7,24.7,29.98,SW,236,0.0,12.0,59,0.00,,BKN041,0.00,445.00,VWS V14.01,2013-01-04 17:37:00,
2013-01-04 12:42:00,38.1,24.2,29.99,NNW,329,6.0,14.0,57,0.00,,BKN041,0.00,480.00,VWS V14.01,2013-01-04 17:42:00,
2013-01-04 12:47:00,38.2,24.7,29.98,SW,236,7.0,15.0,58,0.00,,BKN041,0.00,452.00,VWS V14.01,2013-01-04 17:47:00,
2013-01-04 12:52:00,38.6,25.1,29.98,WNW,286,4.0,15.0,58,0.00,,BKN041,0.00,457.00,VWS V14.01,2013-01-04 17:52:00,
2013-01-04 12:57:00,38.6,24.7,29.98,NNW,345,6.0,15.0,57,0.00,,BKN041,0.00,93.00,VWS V14.01,2013-01-04 17:57:00,
2013-01-04 13:00:00,38.5,24.2,29.95,West,277,4.0,22.0,56,0.00,,,0.00,325.00,VWS V14.01,2013-01-04 18:00:00,
2013-01-04 13:02:00,38.2,23.9,29.98,West,267,8.0,13.0,56,0.00,,BKN041,0.00,118.00,VWS V14.01,2013-01-04 18:02:00,
2013-01-04 13:07:00,37.5,23.7,29.97,NW,317,6.0,17.0,57,0.00,,BKN041,0.00,86.00,VWS V14.01,2013-01-04 18:07:00,
2013-01-04 13:12:00,37.1,23.3,29.97,WNW,297,2.0,17.0,57,0.00,,BKN041,0.00,104.00,VWS V14.01,2013-01-04 18:12:00,
2013-01-04 13:17:00,37.3,24.3,29.97,West,259,0.0,17.0,59,0.00,,BKN041,0.00,330.00,VWS V14.01,2013-01-04 18:17:00,
2013-01-04 13:22:00,37.7,24.7,29.97,West,266,2.0,17.0,59,0.00,,BKN041,0.00,302.00,VWS V14.01,2013-01-04 18:22:00,
2013-01-04 13:27:00,37.9,24.5,29.96,WNW,294,7.0,17.0,58,0.00,,BKN041,0.00,383.00,VWS V14.01,2013-01-04 18:27:00,
2013-01-04 13:30:00,38.9,24.6,29.94,NNE,15,4.0,17.0,56,0.00,,,0.00,269.00,VWS V14.01,2013-01-04 18:30:00,
2013-01-04 13:32:00,38.0,23.7,29.96,West,279,4.0,12.0,56,0.00,,BKN041,0.00,374.00,VWS V14.01,2013-01-04 18:32:00,
2013-01-04 13:37:00,38.0,23.7,29.96,NW,318,6.0,13.0,56,0.00,,BKN041,0.00,88.00,VWS V14.01,2013-01-04 18:37:00,
2013-01-04 13:42:00,38.2,24.3,29.96,WNW,293,3.0,13.0,57,0.00,,BKN041,0.00,357.00,VWS V14.01,2013-01-04 18:42:00,
2013-01-04 13:47:00,38.4,24.1,29.95,WSW,249,6.0,13.0,56,0.00,,BKN041,0.00,350.00,VWS V14.01,2013-01-04 18:47:00,
2013-01-04 13:52:00,38.5,23.8,29.95,WNW,288,11.0,22.0,55,0.00,,BKN041,0.00,336.00,VWS V14.01,2013-01-04 18:52:00,
2013-01-04 13:57:00,38.4,24.1,29.96,WSW,253,2.0,22.0,56,0.00,,BKN041,0.00,325.00,VWS V14.01,2013-01-04 18:57:00,
2013-01-04 14:00:00,38.6,23.8,29.94,WSW,237,9.0,17.0,55,0.00,,,0.00,193.00,VWS V14.01,2013-01-04 19:00:00,
2013-01-04 14:02:00,38.5,24.2,29.95,WSW,244,5.0,7.0,56,0.00,,BKN041,0.00,323.00,VWS V14.01,2013-01-04 19:02:00,
2013-01-04 14:07:00,38.6,23.8,29.95,SW,236,5.0,17.0,55,0.00,,BKN041,0.00,308.00,VWS V14.01,2013-01-04 19:07:00,
2013-01-04 14:12:00,38.7,23.9,29.95,West,281,6.0,17.0,55,0.00,,BKN041,0.00,297.00,VWS V14.01,2013-01-04 19:12:00,
2013-01-04 14:17:00,38.7,23.9,29.95,WSW,245,5.0,17.0,55,0.00,,BKN041,0.00,295.00,VWS V14.01,2013-01-04 19:17:00,
2013-01-04 14:22:00,38.8,24.5,29.95,SW,229,10.0,17.0,56,0.00,,BKN041,0.00,287.00,VWS V14.01,2013-01-04 19:22:00,
2013-01-04 14:27:00,38.8,24.0,29.94,WNW,298,5.0,17.0,55,0.00,,BKN041,0.00,274.00,VWS V14.01,2013-01-04 19:27:00,
2013-01-04 14:30:00,38.3,24.0,29.94,WSW,254,7.0,15.0,56,0.00,,,0.00,114.00,VWS V14.01,2013-01-04 19:30:00,
2013-01-04 14:32:00,38.9,24.1,29.94,NNW,333,3.0,4.0,55,0.00,,FEW042,0.00,265.00,VWS V14.01,2013-01-04 19:32:00,
2013-01-04 14:37:00,39.1,24.7,29.94,NW,307,6.0,9.0,56,0.00,,FEW042,0.00,255.00,VWS V14.01,2013-01-04 19:37:00,
2013-01-04 14:42:00,39.2,24.0,29.94,WSW,245,5.0,12.0,54,0.00,,FEW042,0.00,243.00,VWS V14.01,2013-01-04 19:42:00,
2013-01-04 14:47:00,38.9,24.1,29.94,SW,227,6.0,17.0,55,0.00,,FEW042,0.00,232.00,VWS V14.01,2013-01-04 19:47:00,
2013-01-04 14:52:00,38.8,23.6,29.94,WSW,250,5.0,17.0,54,0.00,,FEW042,0.00,220.00,VWS V14.01,2013-01-04 19:52:00,
2013-01-04 14:57:00,38.6,23.8,29.94,West,262,5.0,17.0,55,0.00,,FEW042,0.00,206.00,VWS V14.01,2013-01-04 19:57:00,
2013-01-04 15:00:00,37.9,24.0,29.93,WSW,255,7.0,17.0,57,0.00,,,0.00,46.00,VWS V14.01,2013-01-04 20:00:00,
2013-01-04 15:02:00,38.6,23.8,29.94,West,277,7.0,13.0,55,0.00,,FEW042,0.00,192.00,VWS V14.01,2013-01-04 20:02:00,
2013-01-04 15:07:00,38.6,23.8,29.94,NW,311,4.0,13.0,55,0.00,,FEW042,0.00,176.00,VWS V14.01,2013-01-04 20:07:00,
2013-01-04 15:12:00,38.6,23.8,29.94,West,266,7.0,13.0,55,0.00,,FEW042,0.00,162.00,VWS V14.01,2013-01-04 20:12:00,
2013-01-04 15:17:00,38.6,23.8,29.94,West,265,7.0,13.0,55,0.00,,FEW042,0.00,153.00,VWS V14.01,2013-01-04 20:17:00,
2013-01-04 15:22:00,38.4,23.7,29.94,WSW,248,8.0,13.0,55,0.00,,FEW042,0.00,144.00,VWS V14.01,2013-01-04 20:22:00,
2013-01-04 15:27:00,38.3,24.0,29.94,NNW,335,3.0,15.0,56,0.00,,FEW042,0.00,128.00,VWS V14.01,2013-01-04 20:27:00,
2013-01-04 15:30:00,36.8,24.2,29.94,SW,221,8.0,16.0,60,0.00,,,0.00,11.00,VWS V14.01,2013-01-04 20:30:00,
2013-01-04 15:32:00,38.3,24.0,29.94,West,278,8.0,13.0,56,0.00,,FEW045,0.00,113.00,VWS V14.01,2013-01-04 20:32:00,
2013-01-04 15:37:00,38.2,23.9,29.94,WNW,301,4.0,13.0,56,0.00,,FEW045,0.00,90.00,VWS V14.01,2013-01-04 20:37:00,
2013-01-04 15:42:00,38.1,23.8,29.94,West,266,1.0,14.0,56,0.00,,FEW045,0.00,58.00,VWS V14.01,2013-01-04 20:42:00,
2013-01-04 15:47:00,38.0,23.7,29.94,West,275,5.0,14.0,56,0.00,,FEW045,0.00,69.00,VWS V14.01,2013-01-04 20:47:00,
2013-01-04 15:52:00,37.9,24.0,29.94,WSW,238,4.0,17.0,57,0.00,,FEW045,0.00,62.00,VWS V14.01,2013-01-04 20:52:00,
2013-01-04 15:57:00,37.9,24.0,29.93,WSW,246,3.0,17.0,57,0.00,,FEW045,0.00,53.00,VWS V14.01,2013-01-04 20:57:00,
2013-01-04 16:00:00,36.2,24.1,29.95,SW,233,8.0,16.0,61,0.00,,,0.00,0.00,VWS V14.01,2013-01-04 21:00:00,
2013-01-04 16:02:00,37.9,24.0,29.93,SW,227,2.0,7.0,57,0.00,,FEW045,0.00,44.00,VWS V14.01,2013-01-04 21:02:00,
2013-01-04 16:07:00,37.7,23.9,29.94,WNW,289,9.0,16.0,57,0.00,,FEW045,0.00,32.00,VWS V14.01,2013-01-04 21:07:00,
2013-01-04 16:12:00,37.5,23.7,29.93,West,270,8.0,16.0,57,0.00,,FEW045,0.00,23.00,VWS V14.01,2013-01-04 21:12:00,
2013-01-04 16:17:00,37.3,23.9,29.94,West,275,12.0,16.0,58,0.00,,FEW045,0.00,18.00,VWS V14.01,2013-01-04 21:17:00,
2013-01-04 16:22:00,37.1,24.1,29.94,SW,236,6.0,16.0,59,0.00,,FEW045,0.00,16.00,VWS V14.01,2013-01-04 21:22:00,
2013-01-04 16:27:00,36.9,23.9,29.94,NW,319,5.0,16.0,59,0.00,,FEW045,0.00,12.00,VWS V14.01,2013-01-04 21:27:00,
2013-01-04 16:30:00,36.1,24.0,29.96,WSW,248,9.0,15.0,61,0.00,,,0.00,0.00,VWS V14.01,2013-01-04 21:30:00,
2013-01-04 16:32:00,36.8,24.2,29.94,WSW,252,5.0,8.0,60,0.00,,CLR,0.00,9.00,VWS V14.01,2013-01-04 21:32:00,
2013-01-04 16:37:00,36.7,24.5,29.94,SSW,213,7.0,9.0,61,0.00,,CLR,0.00,7.00,VWS V14.01,2013-01-04 21:37:00,
2013-01-04 16:42:00,36.6,24.4,29.94,West,259,5.0,13.0,61,0.00,,CLR,0.00,0.00,VWS V14.01,2013-01-04 21:42:00,
2013-01-04 16:47:00,36.5,24.3,29.94,SSW,201,9.0,13.0,61,0.00,,CLR,0.00,0.00,VWS V14.01,2013-01-04 21:47:00,
2013-01-04 16:52:00,36.4,24.2,29.94,WSW,243,4.0,13.0,61,0.00,,CLR,0.00,0.00,VWS V14.01,2013-01-04 21:52:00,
2013-01-04 16:57:00,36.3,24.1,29.94,WSW,248,4.0,13.0,61,0.00,,CLR,0.00,0.00,VWS V14.01,2013-01-04 21:57:00,
2013-01-04 17:00:00,36.1,24.0,29.96,West,267,6.0,16.0,61,0.00,,,0.00,0.00,VWS V14.01,2013-01-04 22:00:00,
2013-01-04 17:02:00,36.2,24.1,29.95,WSW,252,6.0,9.0,61,0.00,,CLR,0.00,0.00,VWS V14.01,2013-01-04 22:02:00,
2013-01-04 17:07:00,36.2,24.1,29.95,West,270,8.0,13.0,61,0.00,,CLR,0.00,0.00,VWS V14.01,2013-01-04 22:07:00,
2013-01-04 17:12:00,36.1,24.4,29.95,WSW,245,13.0,13.0,62,0.00,,CLR,0.00,0.00,VWS V14.01,2013-01-04 22:12:00,
2013-01-04 17:17:00,36.0,24.3,29.95,WNW,292,9.0,13.0,62,0.00,,CLR,0.00,0.00,VWS V14.01,2013-01-04 22:17:00,
2013-01-04 17:22:00,36.0,24.3,29.95,NNW,337,3.0,13.0,62,0.00,,CLR,0.00,0.00,VWS V14.01,2013-01-04 22:22:00,
2013-01-04 17:27:00,36.0,24.3,29.95,SW,234,9.0,15.0,62,0.00,,CLR,0.00,0.00,VWS V14.01,2013-01-04 22:27:00,
2013-01-04 17:30:00,36.4,24.2,29.97,NW,311,6.0,15.0,61,0.00,,,0.00,0.00,VWS V14.01,2013-01-04 22:30:00,
2013-01-04 17:32:00,36.1,24.0,29.96,West,261,8.0,9.0,61,0.00,,CLR,0.00,0.00,VWS V14.01,2013-01-04 22:32:00,
2013-01-04 17:37:00,36.1,24.0,29.96,WSW,238,7.0,16.0,61,0.00,,CLR,0.00,0.00,VWS V14.01,2013-01-04 22:37:00,
2013-01-04 17:41:00,36.1,24.0,29.96,WSW,250,10.0,16.0,61,0.00,,CLR,0.00,0.00,VWS V14.01,2013-01-04 22:41:00,
2013-01-04 17:46:00,36.1,24.0,29.96,WSW,256,5.0,16.0,61,0.00,,CLR,0.00,0.00,VWS V14.01,2013-01-04 22:46:00,
2013-01-04 17:51:00,36.0,23.9,29.96,NW,320,6.0,16.0,61,0.00,,CLR,0.00,0.00,VWS V14.01,2013-01-04 22:51:00,
2013-01-04 17:57:00,36.0,23.9,29.96,WSW,244,9.0,16.0,61,0.00,,CLR,0.00,0.00,VWS V14.01,2013-01-04 22:57:00,
2013-01-04 18:00:00,36.5,24.3,29.96,WNW,282,6.0,18.0,61,0.00,,,0.00,0.00,VWS V14.01,2013-01-04 23:00:00,
2013-01-04 18:01:00,36.1,24.0,29.96,West,265,9.0,13.0,61,0.00,,CLR,0.00,0.00,VWS V14.01,2013-01-04 23:01:00,
2013-01-04 18:06:00,36.1,24.0,29.96,WSW,248,1.0,13.0,61,0.00,,CLR,0.00,0.00,VWS V14.01,2013-01-04 23:06:00,
2013-01-04 18:11:00,36.1,24.0,29.97,West,261,9.0,15.0,61,0.00,,CLR,0.00,0.00,VWS V14.01,2013-01-04 23:11:00,
2013-01-04 18:16:00,36.2,24.1,29.97,WSW,258,6.0,15.0,61,0.00,,CLR,0.00,0.00,VWS V14.01,2013-01-04 23:16:00,
2013-01-04 18:21:00,36.2,24.1,29.97,West,261,3.0,15.0,61,0.00,,CLR,0.00,0.00,VWS V14.01,2013-01-04 23:21:00,
2013-01-04 18:26:00,36.4,24.2,29.96,SSW,213,8.0,15.0,61,0.00,,CLR,0.00,0.00,VWS V14.01,2013-01-04 23:26:00,
2013-01-04 18:30:00,36.6,24.4,29.97,SW,223,5.0,23.0,61,0.00,,,0.00,0.00,VWS V14.01,2013-01-04 23:30:00,
2013-01-04 18:31:00,36.4,24.2,29.97,West,267,5.0,10.0,61,0.00,,CLR,0.00,0.00,VWS V14.01,2013-01-04 23:31:00,
2013-01-04 18:36:00,36.4,24.2,29.97,WSW,240,7.0,12.0,61,0.00,,CLR,0.00,0.00,VWS V14.01,2013-01-04 23:36:00,
2013-01-04 18:41:00,36.4,24.2,29.97,SW,219,5.0,18.0,61,0.00,,CLR,0.00,0.00,VWS V14.01,2013-01-04 23:41:00,
2013-01-04 18:46:00,36.5,24.3,29.96,SSW,206,7.0,18.0,61,0.00,,CLR,0.00,0.00,VWS V14.01,2013-01-04 23:46:00,
2013-01-04 18:51:00,36.5,24.3,29.96,SW,215,9.0,18.0,61,0.00,,CLR,0.00,0.00,VWS V14.01,2013-01-04 23:51:00,
2013-01-04 18:56:00,36.6,24.4,29.96,NW,321,6.0,18.0,61,0.00,,CLR,0.00,0.00,VWS V14.01,2013-01-04 23:56:00,
2013-01-04 19:00:00,36.5,24.3,29.96,WSW,252,6.0,18.0,61,0.00,,,0.00,0.00,VWS V14.01,2013-01-05 00:00:00,
2013-01-04 19:01:00,36.6,24.4,29.96,NW,326,3.0,6.0,61,0.00,,CLR,0.00,0.00,VWS V14.01,2013-01-05 00:01:00,
2013-01-04 19:06:00,36.6,24.0,29.97,West,269,10.0,15.0,60,0.00,,CLR,0.00,0.00,VWS V14.01,2013-01-05 00:06:00,
2013-01-04 19:11:00,36.6,24.4,29.97,West,279,16.0,17.0,61,0.00,,CLR,0.00,0.00,VWS V14.01,2013-01-05 00:11:00,
2013-01-04 19:16:00,36.6,24.0,29.97,NNW,327,6.0,23.0,60,0.00,,CLR,0.00,0.00,VWS V14.01,2013-01-05 00:16:00,
2013-01-04 19:21:00,36.6,24.0,29.97,SSW,206,7.0,23.0,60,0.00,,CLR,0.00,0.00,VWS V14.01,2013-01-05 00:21:00,
2013-01-04 19:26:00,36.6,24.0,29.97,WNW,288,4.0,23.0,60,0.00,,CLR,0.00,0.00,VWS V14.01,2013-01-05 00:26:00,
2013-01-04 19:30:00,36.2,24.5,29.96,WSW,247,2.0,12.0,62,0.00,,,0.00,0.00,VWS V14.01,2013-01-05 00:30:00,
2013-01-04 19:31:00,36.6,24.4,29.97,West,267,8.0,14.0,61,0.00,,CLR,0.00,0.00,VWS V14.01,2013-01-05 00:31:00,
2013-01-04 19:36:00,36.6,24.0,29.97,WSW,242,9.0,15.0,60,0.00,,CLR,0.00,0.00,VWS V14.01,2013-01-05 00:36:00,
2013-01-04 19:41:00,36.6,24.0,29.96,West,270,5.0,15.0,60,0.00,,CLR,0.00,0.00,VWS V14.01,2013-01-05 00:41:00,
2013-01-04 19:46:00,36.6,24.0,29.97,NW,317,3.0,18.0,60,0.00,,CLR,0.00,0.00,VWS V14.01,2013-01-05 00:46:00,
2013-01-04 19:51:00,36.5,24.3,29.96,West,262,9.0,18.0,61,0.00,,CLR,0.00,0.00,VWS V14.01,2013-01-05 00:51:00,
2013-01-04 19:56:00,36.5,24.3,29.96,WNW,299,2.0,18.0,61,0.00,,CLR,0.00,0.00,VWS V14.01,2013-01-05 00:56:00,
2013-01-04 20:00:00,36.0,24.3,29.96,SSW,197,3.0,12.0,62,0.00,,,0.00,0.00,VWS V14.01,2013-01-05 01:00:00,
2013-01-04 20:01:00,36.4,24.2,29.96,West,266,5.0,6.0,61,0.00,,CLR,0.00,0.00,VWS V14.01,2013-01-05 01:01:00,
2013-01-04 20:06:00,36.4,24.2,29.96,SW,232,6.0,11.0,61,0.00,,CLR,0.00,0.00,VWS V14.01,2013-01-05 01:06:00,
2013-01-04 20:11:00,36.3,24.1,29.96,SW,221,4.0,11.0,61,0.00,,CLR,0.00,0.00,VWS V14.01,2013-01-05 01:11:00,
2013-01-04 20:16:00,36.3,24.1,29.96,West,279,6.0,12.0,61,0.00,,CLR,0.00,0.00,VWS V14.01,2013-01-05 01:16:00,
2013-01-04 20:21:00,36.4,24.2,29.96,West,281,3.0,12.0,61,0.00,,CLR,0.00,0.00,VWS V14.01,2013-01-05 01:21:00,
2013-01-04 20:26:00,36.3,24.1,29.96,West,277,2.0,12.0,61,0.00,,CLR,0.00,0.00,VWS V14.01,2013-01-05 01:26:00,
2013-01-04 20:30:00,35.6,24.3,29.97,WSW,252,4.0,15.0,63,0.00,,,0.00,0.00,VWS V14.01,2013-01-05 01:30:00,
2013-01-04 20:31:00,36.2,24.5,29.96,West,276,7.0,7.0,62,0.00,,CLR,0.00,0.00,VWS V14.01,2013-01-05 01:31:00,
2013-01-04 20:36:00,36.1,24.4,29.96,NNW,342,4.0,9.0,62,0.00,,CLR,0.00,0.00,VWS V14.01,2013-01-05 01:36:00,
2013-01-04 20:41:00,36.1,24.4,29.97,WNW,284,2.0,10.0,62,0.00,,CLR,0.00,0.00,VWS V14.01,2013-01-05 01:41:00,
2013-01-04 20:46:00,36.1,24.4,29.96,NW,315,8.0,12.0,62,0.00,,CLR,0.00,0.00,VWS V14.01,2013-01-05 01:46:00,
2013-01-04 20:51:00,36.0,24.3,29.96,West,272,4.0,12.0,62,0.00,,CLR,0.00,0.00,VWS V14.01,2013-01-05 01:51:00,
2013-01-04 20:56:00,36.0,24.3,29.96,NW,311,6.0,12.0,62,0.00,,CLR,0.00,0.00,VWS V14.01,2013-01-05 01:56:00,
2013-01-04 21:00:00,35.7,24.4,29.97,WNW,291,6.0,15.0,63,0.00,,,0.00,0.00,VWS V14.01,2013-01-05 02:00:00,
2013-01-04 21:01:00,36.0,24.3,29.96,West,271,3.0,4.0,62,0.00,,CLR,0.00,0.00,VWS V14.01,2013-01-05 02:01:00,
2013-01-04 21:06:00,35.9,24.2,29.96,West,264,6.0,15.0,62,0.00,,CLR,0.00,0.00,VWS V14.01,2013-01-05 02:06:00,
2013-01-04 21:11:00,35.9,24.2,29.96,West,271,2.0,15.0,62,0.00,,CLR,0.00,0.00,VWS V14.01,2013-01-05 02:11:00,
2013-01-04 21:16:00,35.9,24.2,29.96,WNW,299,7.0,15.0,62,0.00,,CLR,0.00,0.00,VWS V14.01,2013-01-05 02:16:00,
2013-01-04 21:21:00,35.8,24.1,29.96,NW,305,0.0,15.0,62,0.00,,CLR,0.00,0.00,VWS V14.01,2013-01-05 02:21:00,
2013-01-04 21:26:00,35.7,24.4,29.97,WNW,297,3.0,15.0,63,0.00,,CLR,0.00,0.00,VWS V14.01,2013-01-05 02:26:00,
2013-01-04 21:30:00,35.3,24.0,29.98,WNW,300,4.0,13.0,63,0.00,,,0.00,0.00,VWS V14.01,2013-01-05 02:30:00,
2013-01-04 21:31:00,35.6,24.3,29.97,WNW,294,11.0,13.0,63,0.00,,CLR,0.00,0.00,VWS V14.01,2013-01-05 02:31:00,
2013-01-04 21:36:00,35.6,24.3,29.97,WNW,296,5.0,13.0,63,0.00,,CLR,0.00,0.00,VWS V14.01,2013-01-05 02:36:00,
2013-01-04 21:41:00,35.5,24.2,29.97,WSW,254,8.0,13.0,63,0.00,,CLR,0.00,0.00,VWS V14.01,2013-01-05 02:41:00,
2013-01-04 21:46:00,35.5,24.2,29.97,WSW,240,6.0,13.0,63,0.00,,CLR,0.00,0.00,VWS V14.01,2013-01-05 02:46:00,
2013-01-04 21:51:00,35.5,23.8,29.97,WSW,255,1.0,13.0,62,0.00,,CLR,0.00,0.00,VWS V14.01,2013-01-05 02:51:00,
2013-01-04 21:56:00,35.6,23.9,29.97,West,261,8.0,15.0,62,0.00,,CLR,0.00,0.00,VWS V14.01,2013-01-05 02:56:00,
2013-01-04 22:00:00,35.1,23.8,29.99,WNW,300,3.0,12.0,63,0.00,,,0.00,0.00,VWS V14.01,2013-01-05 03:00:00,
2013-01-04 22:01:00,35.7,24.0,29.98,West,270,4.0,6.0,62,0.00,,CLR,0.00,0.00,VWS V14.01,2013-01-05 03:01:00,
2013-01-04 22:06:00,35.6,23.9,29.98,West,279,1.0,9.0,62,0.00,,CLR,0.00,0.00,VWS V14.01,2013-01-05 03:06:00,
2013-01-04 22:11:00,35.5,24.2,29.98,West,263,6.0,11.0,63,0.00,,CLR,0.00,0.00,VWS V14.01,2013-01-05 03:11:00,
2013-01-04 22:16:00,35.4,24.1,29.98,NNW,340,3.0,11.0,63,0.00,,CLR,0.00,0.00,VWS V14.01,2013-01-05 03:16:00,
2013-01-04 22:21:00,35.3,24.0,29.98,NW,312,7.0,11.0,63,0.00,,CLR,0.00,0.00,VWS V14.01,2013-01-05 03:21:00,
2013-01-04 22:26:00,35.3,24.0,29.98,West,265,8.0,11.0,63,0.00,,CLR,0.00,0.00,VWS V14.01,2013-01-05 03:26:00,
2013-01-04 22:30:00,35.0,23.7,30.00,WNW,300,2.0,12.0,63,0.00,,,0.00,0.00,VWS V14.01,2013-01-05 03:30:00,
2013-01-04 22:31:00,35.3,24.0,29.98,SSW,196,4.0,7.0,63,0.00,,CLR,0.00,0.00,VWS V14.01,2013-01-05 03:31:00,
2013-01-04 22:36:00,35.2,23.9,29.98,WNW,296,3.0,10.0,63,0.00,,CLR,0.00,0.00,VWS V14.01,2013-01-05 03:36:00,
2013-01-04 22:41:00,35.2,23.9,29.99,West,274,5.0,11.0,63,0.00,,CLR,0.00,0.00,VWS V14.01,2013-01-05 03:41:00,
2013-01-04 22:46:00,35.1,23.8,29.99,West,266,5.0,11.0,63,0.00,,CLR,0.00,0.00,VWS V14.01,2013-01-05 03:46:00,
2013-01-04 22:51:00,35.1,23.8,29.99,West,275,3.0,11.0,63,0.00,,CLR,0.00,0.00,VWS V14.01,2013-01-05 03:51:00,
2013-01-04 22:56:00,35.1,23.8,29.99,West,269,4.0,12.0,63,0.00,,CLR,0.00,0.00,VWS V14.01,2013-01-05 03:56:00,
2013-01-04 23:00:00,34.7,23.4,30.00,WSW,241,1.0,12.0,63,0.00,,,0.00,0.00,VWS V14.01,2013-01-05 04:00:00,
2013-01-04 23:01:00,35.1,23.8,29.99,SW,234,4.0,5.0,63,0.00,,CLR,0.00,0.00,VWS V14.01,2013-01-05 04:01:00,
2013-01-04 23:06:00,35.1,23.8,29.99,WSW,254,3.0,7.0,63,0.00,,CLR,0.00,0.00,VWS V14.01,2013-01-05 04:06:00,
2013-01-04 23:11:00,35.0,23.7,29.99,WSW,238,4.0,12.0,63,0.00,,CLR,0.00,0.00,VWS V14.01,2013-01-05 04:11:00,
2013-01-04 23:16:00,35.1,23.8,29.99,WSW,249,4.0,12.0,63,0.00,,CLR,0.00,0.00,VWS V14.01,2013-01-05 04:16:00,
2013-01-04 23:21:00,35.0,23.7,29.99,WNW,288,4.0,12.0,63,0.00,,CLR,0.00,0.00,VWS V14.01,2013-01-05 04:21:00,
2013-01-04 23:26:00,35.0,23.7,29.99,NNW,340,3.0,12.0,63,0.00,,CLR,0.00,0.00,VWS V14.01,2013-01-05 04:26:00,
2013-01-04 23:30:00,34.8,23.1,30.00,West,279,5.0,14.0,62,0.00,,,0.00,0.00,VWS V14.01,2013-01-05 04:30:00,
2013-01-04 23:31:00,35.0,23.7,29.99,SW,223,3.0,3.0,63,0.00,,CLR,0.00,0.00,VWS V14.01,2013-01-05 04:31:00,
2013-01-04 23:36:00,35.0,23.7,30.00,West,261,5.0,6.0,63,0.00,,CLR,0.00,0.00,VWS V14.01,2013-01-05 04:36:00,
2013-01-04 23:41:00,35.0,23.7,30.00,WSW,248,10.0,10.0,63,0.00,,CLR,0.00,0.00,VWS V14.01,2013-01-05 04:41:00,
2013-01-04 23:46:00,34.9,23.6,30.00,West,262,2.0,10.0,63,0.00,,CLR,0.00,0.00,VWS V14.01,2013-01-05 04:46:00,
2013-01-04 23:51:00,34.9,23.6,30.00,West,274,3.0,12.0,63,0.00,,CLR,0.00,0.00,VWS V14.01,2013-01-05 04:51:00,
2013-01-04 23:56:00,34.8,23.5,30.00,West,267,2.0,12.0,63,0.00,,CLR,0.00,0.00,VWS V14.01,2013-01-05 04:56:00,